Tracking 19795 objects as of 19-Jul-2019
HD Live streaming from Space Station
objects crossing your sky now

FENGYUN 1C DEB

Track FENGYUN 1C DEB now!
10-day predictions


NORAD ID: 37044
Int'l Code: 1999-025EEC
Perigee: 637.3 km
Apogee: 1,531.6 km
Inclination: 99.0 °
Period: 106.8 minutes
Semi major axis: 7455 km
RCS: 0.0003 m2 (small)
Launch date: May 10, 1999
Source: People's Republic of China (PRC)
Launch site: Taiyaun Space Center, China (TSC)

Note: This is SATELLITE DEBRIS
aabbcc
Your satellite tracking list
Your tracking list is empty




NASA's NSSDC Master Catalog

Two Line Element Set (TLE):
1 37044U 99025EEC 19198.74490521 +.00001385 +00000-0 +74091-3 0  9994
2 37044 098.9553 123.0770 0599791 075.9119 290.7899 13.48630014521856
Source of the keplerian elements: AFSPC